Temp
-6 -6 -6 -6 -6 -6 -6 -6 -6 -6 -6 -6 -6 -6 -6 -6 -6 -6 -6 -6 -5 -5 -5 -5 -5 -5 -6 -6 -5 -5 -5 -5 -6 -6 -6 -6 -6 -6 -7 -7 -7 -7 -8
-6 -6 -6 -6 -6 -6 -6 -6 -6 -6 -6 -6 -6 -6 -6 -6 -6 -5 -5 -6 -5 -5 -5 -5 -6 -6 -5 -5 -5 -5 -5 -5 -5 -5 -6 -6 -6 -6 -6 -7 -7 -7 -8
-7 -6 -7 -6 -6 -6 -6 -7 -7 -7 -7 -7 -6 -6 -6 -6 -6 -5 -5 -6 -6 -6 -6 -6 -6 -6 -5 -5 -5 -5 -5 -5 -5 -5 -6 -6 -6 -6 -6 -7 -7 -6 -7
-7 -7 -7 -7 -7 -7 -7 -7 -7 -7 -7 -7 -6 -6 -6 -6 -6 -5 -6 -6 -6 -6 -6 -5 -6 -6 -5 -4 -5 -5 -5 -5 -5 -6 -6 -6 -6 -6 -6 -7 -7 -6 -7
-7 -7 -7 -7 -7 -7 -7 -7 -7 -7 -7 -7 -7 -6 -6 -5 -6 -6 -6 -5 -6 -6 -5 -5 -5 -5 -5 -4 -5 -5 -5 -5 -5 -6 -6 -6 -5 -5 -6 -6 -7 -6 -7
-6 -7 -7 -7 -7 -7 -7 -7 -7 -7 -7 -7 -7 -6 -6 -6 -6 -6 -6 -6 -6 -6 -6 -6 -6 -5 -4 -5 -5 -5 -5 -5 -5 -6 -6 -6 -5 -6 -6 -6 -6 -6 -6
-6 -7 -7 -7 -7 -7 -7 -7 -7 -7 -8 -7 -7 -7 -7 -6 -6 -6 -6 -6 -5 -6 -6 -6 -5 -5 -5 -5 -6 -5 -5 -5 -5 -5 -6 -6 -6 -6 -6 -6 -5 -6 -6
-6 -7 -7 -7 -7 -7 -7 -7 -7 -7 -8 -8 -8 -8 -7 -7 -6 -6 -6 -6 -6 -6 -6 -5 -5 -5 -5 -5 -5 -5 -5 -5 -5 -5 -5 -5 -5 -6 -6 -6 -6 -5 -5
-6 -6 -7 -7 -7 -7 -7 -7 -7 -7 -8 -8 -9 -8 -7 -7 -6 -6 -6 -6 -5 -6 -6 -6 -6 -6 -5 -5 -5 -5 -5 -5 -5 -6 -5 -5 -5 -5 -6 -6 -6 -6 -5
-6 -6 -6 -7 -7 -7 -7 -7 -7 -7 -8 -9 -9 -9 -8 -8 -7 -6 -7 -6 -8 -7 -6 -5 -5 -6 -5 -5 -5 -5 -5 -5 -5 -6 -6 -6 -6 -5 -6 -6 -6 -6 -6
-6 -6 -7 -7 -7 -7 -7 -7 -7 -7 -7 -8 -8 -9 -8 -8 -8 -9 -9 -9 -9 -6 -5 -5 -6 -6 -5 -5 -5 -6 -5 -6 -6 -6 -6 -6 -6 -6 -5 -6 -6 -6 -5
-6 -6 -7 -7 -7 -7 -7 -7 -7 -7 -7 -8 -8 -8 -8 -8 -8 -7 -8 -7 -8 -7 -6 -6 -5 -5 -6 -6 -5 -5 -5 -5 -6 -5 -6 -6 -6 -6 -6 -6 -6 -6 -6
-6 -6 -6 -6 -7 -7 -7 -7 -7 -7 -7 -8 -8 -7 -7 -7 -7 -7 -7 -7 -6 -6 -6 -6 -5 -5 -5 -6 -6 -6 -5 -5 -6 -6 -6 -6 -6 -6 -6 -6 -6 -6 -6
-6 -6 -7 -7 -7 -7 -7 -7 -7 -7 -7 -7 -7 -7 -7 -7 -7 -7 -6 -6 -6 -6 -6 -5 -5 -5 -6 -6 -6 -5 -5 -5 -5 -5 -5 -5 -6 -5 -5 -6 -6 -6 -6
-6 -6 -7 -7 -7 -7 -7 -7 -7 -7 -7 -6 -7 -7 -7 -7 -7 -6 -6 -6 -6 -6 -6 -6 -6 -6 -6 -6 -6 -5 -5 -5 -5 -5 -5 -5 -5 -6 -6 -6 -6 -6 -6
-6 -6 -6 -7 -7 -7 -7 -7 -7 -7 -7 -7 -7 -7 -7 -6 -6 -6 -6 -6 -6 -6 -6 -6 -6 -6 -6 -6 -6 -5 -5 -5 -5 -5 -6 -6 -6 -5 -6 -6 -6 -6 -6
-6 -6 -6 -7 -7 -7 -7 -7 -7 -7 -7 -7 -7 -7 -7 -7 -6 -6 -6 -6 -6 -6 -6 -6 -6 -6 -6 -6 -6 -6 -6 -6 -5 -5 -6 -6 -6 -6 -6 -6 -6 -6 -6
-6 -6 -6 -6 -7 -7 -7 -7 -7 -7 -7 -7 -7 -7 -7 -7 -7 -7 -6 -6 -6 -6 -6 -6 -6 -5 -5 -6 -6 -6 -5 -5 -6 -6 -6 -5 -6 -6 -6 -6 -6 -6 -6
-6 -6 -6 -6 -7 -7 -7 -7 -6 -7 -6 -6 -7 -7 -7 -7 -7 -7 -6 -6 -6 -6 -5 -5 -5 -6 -6 -5 -5 -5 -5 -5 -6 -6 -6 -6 -6 -6 -6 -6 -6 -6 -6
-6 -6 -6 -6 -7 -7 -7 -6 -6 -6 -7 -7 -6 -6 -6 -6 -6 -6 -6 -6 -6 -5 -5 -5 -5 -5 -6 -6 -5 -5 -5 -5 -5 -5 -6 -6 -6 -6 -6 -6 -6 -6 -5
-7 -7 -6 -6 -6 -7 -7 -6 -7 -6 -6 -6 -6 -6 -6 -6 -6 -6 -6 -6 -6 -5 -5 -5 -5 -5 -5 -6 -5 -5 -5 -5 -5 -5 -6 -6 -6 -6 -6 -6 -6 -5 -5
-6 -7 -7 -6 -6 -6 -6 -7 -6 -7 -6 -6 -6 -6 -6 -6 -7 -6 -6 -6 -6 -6 -6 -6 -5 -5 -5 -6 -5 -5 -6 -5 -5 -6 -6 -6 -5 -5 -6 -5 -5 -5 -5
-7 -6 -6 -7 -7 -6 -6 -7 -7 -7 -7 -7 -7 -7 -7 -7 -6 -6 -6 -6 -6 -6 -6 -6 -6 -6 -6 -6 -6 -5 -6 -6 -6 -5 -5 -5 -5 -5 -5 -5 -6 -6 -6
-6 -6 -6 -6 -7 -6 -6 -6 -7 -7 -7 -7 -7 -7 -7 -7 -7 -7 -7 -7 -7 -7 -6 -6 -6 -6 -6 -6 -5 -5 -6 -6 -6 -6 -6 -6 -5 -5 -5 -6 -6 -6 -6
-6 -6 -6 -7 -7 -7 -7 -7 -7 -7 -7 -7 -7 -7 -7 -7 -7 -7 -7 -7 -7 -7 -6 -6 -6 -6 -6 -6 -5 -5 -5 -6 -6 -6 -6 -5 -6 -6 -6 -6 -6 -6 -6
-6 -6 -6 -7 -6 -6 -7 -7 -7 -7 -7 -7 -8 -7 -7 -8 -7 -7 -7 -7 -7 -7 -7 -6 -6 -6 -6 -6 -6 -6 -6 -6 -6 -6 -6 -5 -6 -6 -6 -6 -6 -6 -6
Height
5879 5881 5881 5882 5883 5883 5881 5881 5881 5881 5881 5882 5881 5882 5882 5885 5886 5888 5889 5890 5892 5894 5897 5898 5900 5902 5902 5903 5904 5906 5906 5906 5906 5905 5904 5903 5900 5899 5898 5896 5894 5893 5893
5881 5882 5882 5883 5885 5883 5882 5882 5881 5881 5882 5882 5881 5881 5883 5887 5887 5890 5890 5892 5894 5897 5898 5900 5903 5903 5904 5905 5906 5907 5909 5908 5907 5906 5905 5902 5901 5901 5898 5896 5895 5893 5893
5882 5883 5882 5885 5885 5883 5883 5883 5882 5882 5882 5881 5881 5882 5883 5885 5885 5888 5892 5893 5895 5898 5901 5902 5905 5906 5907 5908 5907 5909 5910 5909 5909 5908 5906 5904 5904 5901 5899 5898 5896 5894 5895
5882 5883 5885 5885 5884 5883 5883 5882 5883 5885 5883 5882 5882 5882 5883 5879 5875 5887 5892 5895 5896 5899 5902 5904 5906 5908 5909 5910 5909 5911 5911 5911 5911 5910 5908 5907 5905 5903 5901 5900 5898 5896 5897
5884 5884 5885 5885 5884 5884 5884 5885 5886 5885 5883 5883 5884 5884 5884 5879 5883 5886 5893 5895 5897 5901 5903 5905 5908 5910 5911 5911 5912 5912 5913 5913 5912 5912 5911 5910 5908 5907 5905 5903 5900 5900 5900
5885 5886 5886 5885 5885 5886 5886 5886 5887 5886 5886 5887 5886 5887 5883 5885 5887 5891 5893 5895 5899 5901 5904 5907 5910 5913 5913 5914 5915 5915 5915 5916 5915 5914 5912 5911 5911 5911 5909 5907 5905 5903 5903
5888 5887 5887 5886 5887 5887 5888 5889 5890 5888 5889 5887 5885 5884 5887 5885 5888 5891 5893 5895 5899 5903 5907 5910 5912 5915 5915 5917 5918 5917 5918 5919 5918 5916 5914 5913 5913 5913 5912 5910 5908 5907 5906
5890 5889 5888 5888 5888 5888 5890 5890 5891 5891 5891 5889 5886 5884 5885 5888 5889 5891 5894 5897 5899 5905 5908 5912 5914 5916 5918 5919 5919 5920 5920 5921 5919 5919 5916 5915 5915 5915 5914 5912 5911 5910 5908
5892 5891 5891 5891 5891 5891 5891 5892 5893 5893 5893 5892 5890 5887 5886 5888 5891 5893 5895 5898 5901 5906 5910 5912 5915 5917 5920 5921 5922 5922 5922 5922 5920 5920 5918 5917 5916 5916 5916 5914 5914 5913 5911
5894 5893 5893 5893 5893 5893 5893 5893 5894 5894 5894 5893 5893 5892 5891 5892 5893 5894 5896 5899 5905 5910 5912 5914 5917 5919 5921 5923 5923 5923 5923 5922 5921 5921 5920 5918 5918 5917 5917 5916 5915 5915 5915
5896 5895 5895 5895 5895 5895 5896 5895 5895 5896 5896 5896 5896 5896 5896 5897 5897 5900 5902 5904 5910 5911 5915 5917 5919 5919 5921 5922 5922 5923 5923 5923 5922 5921 5921 5920 5919 5919 5919 5918 5917 5917 5917
5898 5898 5897 5897 5898 5898 5898 5897 5897 5897 5898 5897 5898 5898 5899 5901 5903 5905 5907 5910 5913 5914 5915 5917 5919 5921 5922 5923 5923 5924 5924 5924 5923 5922 5922 5921 5920 5920 5920 5919 5919 5918 5919
5900 5900 5899 5899 5900 5900 5900 5900 5900 5899 5900 5900 5900 5901 5902 5904 5906 5908 5910 5912 5915 5915 5916 5918 5921 5922 5923 5924 5924 5924 5924 5924 5924 5924 5923 5922 5921 5921 5921 5921 5920 5919 5920
5902 5902 5901 5901 5902 5902 5902 5902 5903 5903 5903 5903 5903 5904 5905 5907 5908 5910 5912 5914 5915 5917 5919 5920 5922 5924 5925 5925 5924 5923 5924 5925 5926 5926 5924 5923 5922 5923 5922 5922 5921 5920 5919
5904 5904 5903 5903 5904 5904 5903 5903 5904 5906 5906 5906 5906 5907 5908 5909 5911 5914 5915 5917 5918 5920 5921 5922 5923 5924 5924 5925 5925 5925 5925 5926 5926 5926 5925 5924 5924 5924 5923 5922 5922 5921 5919
5905 5905 5904 5904 5904 5905 5905 5906 5906 5907 5908 5909 5909 5909 5910 5912 5913 5914 5916 5918 5920 5921 5922 5923 5924 5924 5924 5925 5925 5925 5926 5927 5927 5926 5926 5925 5926 5925 5924 5922 5921 5920 5919
5906 5905 5905 5905 5905 5905 5906 5907 5908 5908 5909 5910 5910 5912 5913 5914 5915 5916 5918 5919 5919 5921 5922 5922 5923 5924 5925 5926 5926 5926 5927 5927 5927 5926 5926 5925 5925 5925 5924 5922 5920 5919 5918
5906 5906 5905 5906 5906 5906 5907 5907 5909 5910 5910 5911 5912 5912 5913 5915 5916 5917 5917 5918 5920 5921 5922 5922 5922 5923 5925 5926 5925 5925 5926 5926 5926 5925 5925 5925 5925 5924 5922 5920 5918 5917 5916
5906 5906 5906 5906 5906 5907 5907 5908 5910 5910 5911 5912 5913 5914 5914 5915 5916 5916 5918 5919 5919 5921 5922 5922 5922 5923 5925 5925 5925 5925 5924 5924 5923 5923 5923 5923 5923 5923 5921 5920 5918 5914 5913
5906 5906 5906 5905 5906 5907 5908 5909 5910 5911 5912 5912 5913 5914 5915 5915 5916 5917 5918 5919 5920 5920 5920 5921 5921 5922 5923 5923 5923 5924 5923 5921 5920 5922 5921 5920 5921 5921 5919 5918 5915 5913 5911
5905 5905 5905 5904 5904 5905 5907 5908 5909 5910 5910 5911 5912 5913 5913 5914 5914 5915 5916 5918 5918 5919 5919 5920 5921 5920 5920 5920 5921 5921 5921 5920 5920 5919 5919 5919 5919 5918 5916 5914 5911 5910 5908
5907 5906 5905 5903 5903 5904 5905 5907 5908 5909 5910 5910 5910 5910 5910 5912 5913 5913 5914 5915 5915 5917 5917 5917 5918 5919 5918 5918 5919 5919 5919 5920 5919 5919 5918 5916 5915 5913 5913 5912 5909 5907 5906
5907 5906 5905 5902 5901 5901 5904 5906 5907 5908 5908 5908 5909 5909 5909 5910 5912 5913 5913 5914 5914 5915 5915 5916 5917 5917 5917 5917 5917 5917 5917 5918 5918 5917 5916 5913 5910 5908 5907 5907 5907 5906 5905
5909 5907 5906 5903 5903 5903 5905 5906 5906 5907 5908 5908 5908 5909 5909 5909 5910 5912 5914 5915 5915 5914 5914 5915 5915 5916 5917 5916 5915 5914 5914 5915 5915 5914 5913 5910 5906 5904 5904 5905 5905 5904 5903
5910 5908 5907 5907 5906 5906 5906 5906 5906 5906 5907 5908 5909 5910 5911 5911 5911 5911 5911 5911 5911 5912 5912 5913 5913 5913 5912 5912 5910 5910 5910 5910 5911 5911 5910 5908 5904 5902 5903 5903 5902 5902 5902
5911 5909 5907 5906 5906 5905 5905 5904 5904 5905 5906 5907 5908 5909 5910 5910 5909 5909 5909 5909 5909 5909 5909 5910 5910 5909 5908 5907 5905 5904 5905 5907 5908 5908 5907 5906 5904 5902 5901 5901 5901 5900 5899
Wind_Speed
8 7 8 9 9 9 10 10 10 10 9 7 5 6 6 8 9 10 17 21 18 21 19 18 17 16 15 12 11 11 9 10 10 11 11 10 12 15 13 13 11 7 4
8 7 10 10 10 10 11 11 11 10 8 8 6 4 6 8 8 15 15 20 17 16 22 17 17 16 14 12 9 10 10 10 10 10 9 12 13 11 12 11 11 10 9
9 8 10 10 11 11 12 12 12 11 8 9 7 5 6 14 14 15 15 15 14 19 20 16 16 15 13 10 11 10 11 10 11 10 11 12 10 11 12 11 15 16 12
9 9 10 11 12 12 12 14 12 11 9 10 9 5 1 19 16 14 20 18 20 20 19 16 15 13 11 9 11 10 10 11 11 10 12 12 12 13 12 12 17 18 14
9 9 10 11 12 12 13 13 13 12 11 10 9 9 8 15 17 13 21 15 28 20 14 13 13 11 11 10 9 10 9 11 9 10 13 14 15 15 14 14 17 19 15
9 10 11 12 13 11 12 13 14 13 11 7 4 8 16 12 12 16 14 22 29 20 18 15 14 12 11 11 11 9 10 9 8 11 14 16 16 14 14 15 15 17 15
9 10 10 11 11 11 12 13 15 14 13 12 9 11 20 11 12 19 9 13 29 23 19 15 13 12 11 10 10 11 9 7 9 13 14 16 15 14 13 13 14 15 14
10 12 11 11 11 12 14 13 13 14 16 20 24 16 17 20 11 20 20 23 29 22 20 16 14 12 9 10 10 9 9 10 12 12 15 16 16 13 12 12 11 11 12
13 13 13 12 12 12 15 14 13 14 14 19 20 22 20 17 14 18 19 22 28 25 21 16 13 11 10 9 9 11 10 11 10 12 15 15 15 14 12 13 13 12 11
13 15 14 14 13 13 15 15 13 12 14 12 18 20 25 20 22 19 20 20 27 18 16 13 13 14 12 10 7 8 9 8 8 9 11 13 13 12 12 12 12 13 11
15 15 16 16 14 15 15 16 15 13 13 14 16 19 26 26 29 34 30 30 24 18 16 15 15 16 12 9 9 7 7 8 8 10 7 10 10 10 9 11 11 12 11
15 15 16 17 17 16 16 18 17 15 13 14 16 17 18 20 23 21 18 19 23 16 19 17 14 12 10 7 7 6 7 7 9 9 9 10 10 10 7 7 10 11 10
13 14 15 17 17 18 17 16 17 16 14 14 17 19 17 18 17 18 16 19 19 14 15 15 12 10 8 9 10 10 11 10 8 8 8 10 10 8 8 8 7 8 9
9 10 13 13 16 17 19 17 17 17 18 18 19 21 19 19 18 16 17 16 15 14 14 13 11 11 9 9 10 11 10 8 6 7 8 9 8 8 7 8 8 8 6
10 9 12 12 13 15 16 17 17 17 18 19 19 19 19 20 17 17 15 13 16 15 14 12 9 8 5 6 7 8 5 4 3 4 5 7 5 6 5 6 5 6 6
9 11 12 12 10 11 14 13 15 15 15 16 17 17 18 17 17 15 13 13 13 12 11 10 8 6 4 3 4 4 3 2 2 3 4 4 4 5 5 5 5 7 5
7 9 12 11 9 9 9 8 10 11 12 11 11 12 14 15 15 14 13 12 12 10 9 8 5 5 3 2 1 2 2 2 3 3 3 5 5 6 7 4 6 7 9
4 5 6 8 8 8 8 6 9 10 10 10 9 8 7 9 9 9 8 8 6 5 4 5 4 4 2 2 1 3 5 3 3 4 4 3 6 4 6 8 9 11 13
3 6 6 7 7 9 8 7 8 10 10 9 9 8 7 6 6 7 7 6 5 4 3 3 4 4 2 0 1 4 4 5 4 3 3 4 6 7 7 8 11 14 13
3 4 6 9 8 8 9 9 7 6 5 7 8 8 6 6 5 4 5 6 5 4 4 4 4 5 6 3 4 4 4 7 6 3 3 5 7 8 10 11 11 11 10
1 4 7 10 9 9 8 8 9 8 8 7 6 6 8 7 6 6 8 9 7 3 6 7 5 8 8 3 4 5 5 6 7 8 7 9 11 11 10 11 12 10 9
2 2 4 9 11 9 10 10 9 6 5 7 8 5 4 7 8 8 8 9 8 8 7 7 7 7 8 8 7 7 8 9 10 10 13 15 16 16 14 12 9 9 8
5 5 1 8 12 13 10 11 12 9 6 4 5 7 8 9 10 6 8 6 8 6 6 9 11 10 11 10 11 13 13 11 11 13 14 16 18 19 17 12 7 8 6
9 8 5 7 2 7 9 10 10 11 8 9 8 8 6 6 5 3 4 8 10 9 8 8 9 9 13 15 16 17 15 13 11 8 8 11 12 11 10 8 6 5 5
8 7 6 6 5 5 6 7 8 10 9 10 9 9 7 6 6 5 7 7 8 10 12 12 14 13 13 13 16 17 16 13 10 4 4 7 8 4 1 5 5 4 4
8 8 9 6 4 6 6 5 8 11 9 9 7 7 7 8 9 10 11 11 11 12 12 13 12 10 8 9 12 11 13 12 8 5 2 2 3 6 5 4 4 3 3
Wind_Direction
92 106 119 124 122 113 105 106 106 102 96 98 106 122 138 134 152 159 154 154 155 158 148 132 133 129 120 111 86 79 70 61 55 46 38 31 25 15 6 13 20 35 70
106 124 127 130 126 117 107 106 102 94 91 85 91 119 158 149 157 162 148 165 160 154 151 141 142 133 120 104 94 77 71 67 59 48 43 39 32 22 29 29 42 59 69
109 116 118 133 123 111 105 103 95 85 80 76 74 106 179 176 169 145 155 158 164 160 148 142 148 136 117 114 98 86 79 72 64 55 52 43 41 45 45 47 70 69 73
102 109 124 124 110 101 98 91 90 83 74 66 65 64 184 155 142 156 163 153 158 150 149 147 144 127 121 115 96 91 80 72 63 53 56 47 48 50 57 68 79 78 83
107 111 117 117 107 98 102 96 91 84 69 59 54 66 132 144 147 141 169 171 151 149 148 156 140 134 124 103 104 90 81 72 71 71 66 52 49 44 57 75 84 82 78
101 116 125 115 104 104 105 97 91 86 76 60 46 155 136 157 156 159 148 160 156 152 166 155 142 138 121 112 89 87 69 73 84 81 70 62 51 50 53 71 77 80 78
102 114 117 112 114 115 112 104 95 90 74 45 75 150 168 198 158 142 174 164 168 161 154 150 141 133 122 112 97 77 74 78 90 84 78 69 58 56 57 54 65 74 78
101 104 108 115 115 113 112 102 101 95 82 65 60 112 156 171 152 149 158 173 169 161 164 142 138 123 116 104 87 87 91 92 81 78 75 73 67 55 63 61 52 62 68
100 105 107 107 109 113 118 121 113 104 85 66 65 69 128 147 146 152 159 180 185 160 134 137 130 120 106 100 102 101 96 96 90 84 77 70 64 58 54 60 58 50 61
102 101 106 109 109 114 122 123 116 117 96 85 74 70 87 108 118 139 120 155 113 124 124 126 120 111 107 106 109 111 113 100 84 76 75 74 60 56 56 55 57 57 48
94 99 103 100 102 106 117 121 122 111 102 91 84 83 92 94 103 102 94 105 116 120 127 126 123 116 122 136 128 123 114 97 88 75 68 69 68 57 45 59 58 56 53
98 99 101 102 102 102 107 114 116 108 103 95 92 96 99 99 103 114 114 121 119 131 118 123 119 120 127 136 115 101 99 86 70 74 73 63 61 62 61 52 59 57 49
110 106 100 104 106 107 104 105 107 106 105 105 101 106 108 99 100 108 114 120 126 120 111 119 125 123 128 120 113 101 91 84 84 83 75 70 71 63 67 71 53 52 53
119 106 101 103 102 105 108 107 109 109 102 104 106 107 110 111 108 111 118 124 122 121 121 120 119 124 124 112 103 95 88 84 76 86 82 71 71 71 70 75 75 64 59
104 101 106 109 107 104 103 104 105 109 113 113 111 110 112 115 114 113 115 123 121 123 121 118 124 124 110 106 107 99 94 97 85 67 69 65 56 57 49 29 60 80 69
119 105 104 111 111 106 103 102 104 105 111 117 121 120 117 117 118 116 115 129 125 122 125 132 138 124 124 104 81 97 100 81 9 3 14 16 9 20 21 12 351 344 23
131 120 114 111 128 132 127 112 115 120 118 115 113 113 121 125 127 130 132 133 123 135 146 149 150 142 145 154 150 288 293 277 293 308 355 6 343 354 353 334 323 312 307
139 137 135 123 116 105 112 136 143 143 131 127 126 121 118 125 132 134 126 120 132 145 167 188 189 181 196 230 253 310 308 291 265 277 285 310 323 337 341 321 305 309 293
188 184 177 165 155 138 133 128 158 153 149 144 144 141 141 136 142 154 159 153 160 165 185 184 196 191 157 134 261 297 307 296 274 256 261 277 307 322 320 310 314 302 306
204 221 189 193 185 180 159 158 153 160 163 185 182 176 181 174 171 173 196 200 204 197 224 235 201 223 170 193 288 268 259 326 313 279 250 275 286 297 304 308 307 308 316
206 212 206 194 195 203 183 182 170 169 174 168 179 193 214 213 206 215 211 203 218 229 221 228 220 218 261 208 259 286 324 325 329 302 289 276 286 292 300 314 315 320 328
36 166 208 205 199 203 204 197 191 177 169 176 180 176 194 208 223 230 244 221 235 231 231 239 245 240 253 255 262 284 291 297 298 302 301 295 291 289 282 293 304 315 335
36 9 315 232 206 195 213 204 202 183 179 205 183 168 185 201 218 247 248 234 242 240 248 248 256 254 257 267 275 275 279 288 291 300 305 301 293 278 266 265 271 291 293
50 25 357 337 349 192 211 208 206 206 201 215 215 199 207 227 256 275 265 246 245 252 263 263 270 278 269 267 277 280 282 287 293 300 334 340 321 297 258 252 251 246 266
30 38 7 356 342 268 251 218 204 204 209 213 218 233 255 275 271 275 282 279 270 264 265 271 281 287 287 292 284 275 265 263 266 265 332 22 17 5 247 224 213 213 271
40 27 13 9 16 333 269 246 239 234 236 211 219 243 250 265 272 270 270 275 281 283 285 281 278 272 281 311 310 281 254 242 227 243 272 322 44 62 104 175 178 205 243